EN

Hourly Weather Al Mashhad

Today, 20 January, Wednesday

Time Temperature Precipitation Wind Pressure Humidity
00:00 +16°C° 0 mm 0 mps 647 mmHg 52%
01:00 +15°C° 0 mm 0 mps 647 mmHg 50%
02:00 +14°C° 0 mm 0 mps 646 mmHg 47%
03:00 +13°C° 0 mm 0 mps 646 mmHg 40%
04:00 +13°C° 0 mm 0 mps 646 mmHg 36%
05:00 +13°C° 0 mm 0 mps 646 mmHg 32%
06:00 +13°C° 0 mm 1 mps 646 mmHg 27%
07:00 +16°C° 0 mm 1 mps 647 mmHg 23%
08:00 +19°C° 0 mm 1 mps 648 mmHg 20%
09:00 +21°C° 0 mm 1 mps 649 mmHg 16%
10:00 +23°C° 0 mm 1 mps 649 mmHg 16%
11:00 +24°C° 0 mm 2 mps 649 mmHg 16%
12:00 +26°C° 0 mm 2 mps 650 mmHg 15%
13:00 +26°C° 0 mm 3 mps 649 mmHg 24%
14:00 +26°C° 0 mm 4 mps 649 mmHg 32%
15:00 +26°C° 0 mm 5 mps 648 mmHg 41%
16:00 +23°C° 0 mm 4 mps 648 mmHg 51%
17:00 +22°C° 0 mm 3 mps 648 mmHg 61%
18:00 +21°C° 0 mm 2 mps 648 mmHg 72%
19:00 +20°C° 0 mm 2 mps 648 mmHg 76%
20:00 +20°C° 0 mm 1 mps 648 mmHg 81%
21:00 +19°C° 0 mm 1 mps 648 mmHg 86%
22:00 +17°C° 0 mm 0 mps 648 mmHg 87%
23:00 +16°C° 0 mm 0 mps 648 mmHg 88%

Tomorrow, 21 January, Thursday

Time Temperature Precipitation Wind Pressure Humidity
00:00 +16°C° 0 mm 0 mps 648 mmHg 89%
01:00 +16°C° 0 mm 0 mps 647 mmHg 90%
02:00 +15°C° 0 mm 0 mps 647 mmHg 91%
03:00 +15°C° 0 mm 0 mps 646 mmHg 92%
04:00 +14°C° 0 mm 0 mps 646 mmHg 92%
05:00 +14°C° 0 mm 0 mps 646 mmHg 92%
06:00 +14°C° 0 mm 0 mps 646 mmHg 92%
07:00 +16°C° 0 mm 0 mps 647 mmHg 81%
08:00 +17°C° 0 mm 0 mps 648 mmHg 70%
09:00 +19°C° 0 mm 0 mps 649 mmHg 60%
10:00 +23°C° 0 mm 1 mps 649 mmHg 51%
11:00 +25°C° 0 mm 1 mps 649 mmHg 42%
12:00 +27°C° 0 mm 2 mps 650 mmHg 33%
13:00 +27°C° 0 mm 3 mps 649 mmHg 36%
14:00 +27°C° 0 mm 3 mps 649 mmHg 38%
15:00 +27°C° 0 mm 4 mps 648 mmHg 40%
16:00 +25°C° 0 mm 3 mps 648 mmHg 47%
17:00 +24°C° 0 mm 3 mps 648 mmHg 53%
18:00 +21°C° 0 mm 2 mps 648 mmHg 60%
19:00 +21°C° 0 mm 2 mps 648 mmHg 56%
20:00 +20°C° 0 mm 2 mps 648 mmHg 53%
21:00 +20°C° 0 mm 1 mps 649 mmHg 49%
22:00 +19°C° 0 mm 2 mps 649 mmHg 41%
23:00 +19°C° 0 mm 2 mps 649 mmHg 33%

Day after tomorrow, 22 January, Friday

Time Temperature Precipitation Wind Pressure Humidity
00:00 +18°C° 0 mm 3 mps 649 mmHg 24%
01:00 +17°C° 0 mm 4 mps 649 mmHg 25%
02:00 +15°C° 0 mm 4 mps 648 mmHg 25%
03:00 +14°C° 0 mm 5 mps 648 mmHg 26%
04:00 +14°C° 0 mm 5 mps 648 mmHg 29%
05:00 +13°C° 0 mm 5 mps 648 mmHg 33%
06:00 +11°C° 0 mm 6 mps 648 mmHg 37%
07:00 +13°C° 0 mm 6 mps 648 mmHg 35%
08:00 +14°C° 0 mm 6 mps 649 mmHg 33%
09:00 +16°C° 0 mm 6 mps 649 mmHg 31%
10:00 +19°C° 0 mm 5 mps 649 mmHg 27%
11:00 +20°C° 0 mm 5 mps 650 mmHg 24%
12:00 +22°C° 0 mm 4 mps 650 mmHg 20%
13:00 +23°C° 0 mm 4 mps 649 mmHg 19%
14:00 +25°C° 0 mm 3 mps 649 mmHg 18%
15:00 +26°C° 0 mm 3 mps 648 mmHg 16%
16:00 +25°C° 0 mm 3 mps 648 mmHg 22%
17:00 +22°C° 0 mm 3 mps 648 mmHg 28%
18:00 +21°C° 0 mm 3 mps 648 mmHg 33%
19:00 +20°C° 0 mm 3 mps 648 mmHg 33%
20:00 +19°C° 0 mm 3 mps 648 mmHg 33%
21:00 +17°C° 0 mm 3 mps 648 mmHg 34%
22:00 +17°C° 0 mm 3 mps 648 mmHg 34%
23:00 +15°C° 0 mm 4 mps 648 mmHg 34%

23 January, Saturday

Time Temperature Precipitation Wind Pressure Humidity
00:00 +14°C° 0 mm 4 mps 647 mmHg 35%
01:00 +14°C° 0 mm 4 mps 647 mmHg 36%
02:00 +13°C° 0 mm 4 mps 647 mmHg 38%
03:00 +13°C° 0 mm 4 mps 646 mmHg 39%
04:00 +12°C° 0 mm 4 mps 646 mmHg 41%
05:00 +12°C° 0 mm 4 mps 646 mmHg 43%
06:00 +11°C° 0 mm 4 mps 646 mmHg 44%
07:00 +12°C° 0 mm 4 mps 647 mmHg 42%
08:00 +14°C° 0 mm 4 mps 648 mmHg 39%
09:00 +15°C° 0 mm 4 mps 649 mmHg 36%
10:00 +18°C° 0 mm 4 mps 649 mmHg 31%
11:00 +21°C° 0 mm 3 mps 649 mmHg 26%
12:00 +24°C° 0 mm 2 mps 649 mmHg 21%
13:00 +25°C° 0 mm 2 mps 649 mmHg 20%
14:00 +25°C° 0 mm 2 mps 648 mmHg 20%
15:00 +26°C° 0 mm 2 mps 648 mmHg 19%
16:00 +25°C° 0 mm 2 mps 648 mmHg 24%
17:00 +23°C° 0 mm 2 mps 648 mmHg 30%
18:00 +22°C° 0 mm 1 mps 647 mmHg 35%
19:00 +20°C° 0 mm 2 mps 648 mmHg 35%
20:00 +19°C° 0 mm 2 mps 648 mmHg 34%
21:00 +18°C° 0 mm 3 mps 648 mmHg 34%
22:00 +17°C° 0 mm 3 mps 648 mmHg 33%
23:00 +16°C° 0 mm 3 mps 648 mmHg 33%

24 January, Sunday

Time Temperature Precipitation Wind Pressure Humidity
00:00 +14°C° 0 mm 3 mps 647 mmHg 32%
01:00 +14°C° 0 mm 3 mps 647 mmHg 33%
02:00 +13°C° 0 mm 3 mps 646 mmHg 33%
03:00 +13°C° 0 mm 3 mps 646 mmHg 34%
04:00 +12°C° 0 mm 3 mps 646 mmHg 35%
05:00 +12°C° 0 mm 3 mps 646 mmHg 35%
06:00 +12°C° 0 mm 3 mps 646 mmHg 36%
07:00 +14°C° 0 mm 3 mps 647 mmHg 32%
08:00 +16°C° 0 mm 3 mps 648 mmHg 28%
09:00 +18°C° 0 mm 3 mps 649 mmHg 23%
10:00 +21°C° 0 mm 2 mps 649 mmHg 21%
11:00 +24°C° 0 mm 2 mps 649 mmHg 18%
12:00 +26°C° 0 mm 1 mps 649 mmHg 15%
13:00 +26°C° 0 mm 2 mps 649 mmHg 17%
14:00 +27°C° 0 mm 3 mps 648 mmHg 18%
15:00 +27°C° 0 mm 4 mps 648 mmHg 19%
16:00 +25°C° 0 mm 3 mps 648 mmHg 28%
17:00 +23°C° 0 mm 2 mps 648 mmHg 36%
18:00 +22°C° 0 mm 1 mps 648 mmHg 45%
19:00 +20°C° 0 mm 2 mps 648 mmHg 41%
20:00 +19°C° 0 mm 2 mps 648 mmHg 37%
21:00 +19°C° 0 mm 3 mps 649 mmHg 33%
22:00 +18°C° 0 mm 3 mps 648 mmHg 29%
23:00 +17°C° 0 mm 3 mps 648 mmHg 26%

25 January, Monday

Time Temperature Precipitation Wind Pressure Humidity
00:00 +16°C° 0 mm 3 mps 647 mmHg 22%
01:00 +16°C° 0 mm 3 mps 647 mmHg 21%
02:00 +14°C° 0 mm 3 mps 647 mmHg 20%
03:00 +14°C° 0 mm 3 mps 646 mmHg 19%
04:00 +13°C° 0 mm 3 mps 646 mmHg 20%
05:00 +13°C° 0 mm 3 mps 646 mmHg 20%
06:00 +12°C° 0 mm 3 mps 646 mmHg 20%
07:00 +14°C° 0 mm 3 mps 647 mmHg 17%
08:00 +17°C° 0 mm 3 mps 648 mmHg 15%
09:00 +19°C° 0 mm 3 mps 649 mmHg 13%
10:00 +21°C° 0 mm 3 mps 649 mmHg 13%
11:00 +24°C° 0 mm 2 mps 649 mmHg 12%
12:00 +26°C° 0 mm 2 mps 650 mmHg 12%
13:00 +26°C° 0 mm 2 mps 649 mmHg 14%
14:00 +26°C° 0 mm 3 mps 649 mmHg 16%
15:00 +27°C° 0 mm 4 mps 648 mmHg 19%
16:00 +25°C° 0 mm 3 mps 648 mmHg 28%
17:00 +22°C° 0 mm 3 mps 648 mmHg 37%
18:00 +21°C° 0 mm 2 mps 648 mmHg 45%
19:00 +20°C° 0 mm 2 mps 648 mmHg 45%
20:00 +19°C° 0 mm 2 mps 648 mmHg 45%
21:00 +20°C° 0 mm 1 mps 648 mmHg 45%
22:00 +18°C° 0 mm 2 mps 648 mmHg 39%
23:00 +17°C° 0 mm 2 mps 648 mmHg 34%
Show more